Jaipur / Sanganer, India

6:57 AM IST on January 23, 2017 (GMT +0530)
Jaipur / Sanganer

Weather History for 42348 - September, 2013

Change the Weather History Date:

Sunday, September 15, 2013

  Actual Average Record
Temperature  
Mean Temperature 89 °F -  
Max Temperature 100 °F - - ()
Min Temperature 78 °F - - ()
Cooling Degree Days 24    
Growing Degree Days 39 (Base 50)    
Moisture  
Dew Point 69 °F    
Average Humidity 53    
Maximum Humidity 74    
Minimum Humidity 24    
Precipitation  
Precipitation 0.00 in - - ()
Sea Level Pressure  
Sea Level Pressure 29.69 in    
Wind  
Wind Speed 1 mph ()    
Max Wind Speed 6 mph    
Max Gust Speed -    
Visibility 2.3 miles    
Events      
T = Trace of Precipitation, MM = Missing Value Source: Averaged Metar Reports

Daily Weather History Graph

Daily Weather History Graph

Search for Another Location

Airport or City:

Trip Planner

Search our weather history database for the weather conditions in past years. The results will help you decide how hot, cold, wet, or windy it might be!

Date:

Astronomy

Sep. 15, 2013 Rise Set
Actual Time 6:12 AM IST 6:31 PM IST
Civil Twilight 5:48 AM IST 6:54 PM IST
Nautical Twilight 5:21 AM IST 7:21 PM IST
Astronomical Twilight 4:54 AM IST 7:49 PM IST
Moon 3:20 PM IST (9/15) 1:39 AM IST (9/15)
Length of Visible Light 13h 05m
Length of Day
12h 19m
Waxing Gibbous, 78% of the Moon is Illuminated
Sep 15
Waxing Gibbous
Sep 19
Full
Sep 27
Last Quarter
Oct 5
New
Oct 12
First Quarter

Hourly Weather History & Observations

Time (IST) Temp. Heat Index Dew Point Humidity Pressure Visibility Wind Dir Wind Speed Gust Speed Precip Events Conditions
12:00 AM 84.2 °F 88.4 °F 69.8 °F 62% 29.71 in 2.2 mi Calm Calm - N/A   Haze
1:00 AM 84.2 °F 87.3 °F 68.0 °F 58% 29.71 in 2.2 mi Calm Calm - N/A   Haze
2:00 AM 82.4 °F 85.4 °F 68.0 °F 62% 29.68 in 2.2 mi Calm Calm - N/A   Haze
2:30 AM 84 °F - 67 °F 48% 29.61 in 2 mi Calm Calm - -   Haze
3:00 AM 84.2 °F 87.3 °F 68.0 °F 58% 29.68 in 2.2 mi Calm Calm - N/A   Haze
4:00 AM 80.6 °F 83.2 °F 68.0 °F 65% 29.65 in 2.2 mi Calm Calm - N/A   Haze
5:00 AM 78.8 °F - 69.8 °F 74% 29.68 in 2.2 mi Calm Calm - N/A   Haze
5:30 AM 78 °F - 69 °F 67% 29.62 in 1 mi Calm Calm - -   Haze
6:00 AM 78.8 °F - 69.8 °F 74% 29.71 in 2.2 mi Calm Calm - N/A   Haze
7:00 AM 80.6 °F 84.6 °F 71.6 °F 74% 29.71 in 1.9 mi Calm Calm - N/A   Haze
8:00 AM 86.0 °F 91.8 °F 71.6 °F 62% 29.74 in 1.9 mi Variable 1.2 mph - N/A   Haze
8:30 AM 87 °F - 72 °F 52% 30.84 in 2 mi East 5.8 mph - -   Haze
9:00 AM 87.8 °F 95.6 °F 73.4 °F 62% 29.74 in 2.5 mi East 5.8 mph - N/A   Haze
10:00 AM 91.4 °F 100.1 °F 73.4 °F 55% 29.74 in 2.5 mi ESE 4.6 mph - N/A   Haze
11:00 AM 93.2 °F 100.5 °F 71.6 °F 49% 29.74 in 2.5 mi SE 4.6 mph - N/A   Haze
11:30 AM 94 °F - 68 °F 33% 29.62 in 2 mi Calm Calm - -   Haze
1:00 PM 96.8 °F 103.1 °F 69.8 °F 41% 29.68 in 3.1 mi Variable 3.5 mph - N/A   Haze
2:00 PM 98.6 °F 105.5 °F 69.8 °F 39% 29.65 in 3.1 mi Variable 4.6 mph - N/A   Haze
2:30 PM 97 °F - 67 °F 28% 29.53 in 2 mi ESE 3.5 mph - -   Haze
3:00 PM 98.6 °F 105.5 °F 69.8 °F 39% 29.62 in 3.1 mi Variable 2.3 mph - N/A   Haze
4:00 PM 98.6 °F 104.1 °F 68.0 °F 37% 29.59 in 3.1 mi Variable 3.5 mph - N/A   Haze
5:00 PM 96.8 °F 99.0 °F 64.4 °F 34% 29.59 in 3.1 mi Variable 4.6 mph - N/A   Haze
5:30 PM 98 °F - 65 °F 24% 29.48 in 2 mi NW 1.2 mph - -   Haze
6:00 PM 96.8 °F 100.7 °F 66.2 °F 37% 29.59 in 3.1 mi Calm Calm - N/A   Haze
7:00 PM 91.4 °F 96.8 °F 69.8 °F 49% 29.59 in 2.5 mi Calm Calm - N/A   Haze
9:00 PM 86.0 °F 90.4 °F 69.8 °F 58% 29.62 in 1.9 mi Calm Calm - N/A   Haze
10:00 PM 84.2 °F 89.6 °F 71.6 °F 66% 29.65 in 1.9 mi Calm Calm - N/A   Haze
11:00 PM 84.2 °F 89.6 °F 71.6 °F 66% 29.65 in 1.9 mi Calm Calm - N/A   Haze
11:30 PM 85 °F - 71 °F 55% 29.56 in 1 mi Calm Calm - -   Haze